Other Public Products
Issued by NWS Charleston, SC

Home | Current Version | Previous Version | Text Only | Print | Product List | Glossary On
Versions: 1 2 3 4 5 6 7 8 9 10 11 12 13 14 15 16 17 18 19 20 21 22 23 24 25 26 27 28 29 30 31 32 33 34 35 36 37 38 39 40 41 42 43 44 45 46 47 48 49 50
042
FPUS82 KCHS 271112
OPUCHS

TEST...KCHS/KSAV Gateway Observations...TEST
National Weather Service Charleston SC
700 AM EDT SAT MAY 27 2017

NOTE: "fair" indicates few or no clouds below 12,000 feet with no
significant weather and/or obstructions to visibility.

SCZ050-WAZ558-NCZ071-TXZ119-213-PAZ071-DCZ001-FLZ074-172-MI076-
NYZ176-178-MAZ016-IL014-TNZ027-NJZ106-GAZ044-MD014-271200-

...Gateway Observations for Charleston International...

CITY           SKY/WX    TMP DP  RH WIND       PRES   REMARKS
Chas Airport   CLEAR     65  60  84 SW3       30.01R
Seattle        CLEAR     60  48  64 CALM      30.05S
Charlotte      PTCLDY    65  60  84 CALM      29.98R
Dallas DFW     CLOUDY    81  75  82 S16       29.80R
Dallas Love    CLOUDY    80  74  81 S14       29.82R
Philladelphia  MOSUNNY   62  51  67 NW9       29.89F
Wash National  PTSUNNY   63  60  90 SW3       29.92R
Baltimore      CLOUDY    59  58  96 W3        29.91R
Miami          PTCLDY    81  76  84 SW6       30.04R
Detroit        CLOUDY    60  56  86 NE6       29.89R
Newark         PTSUNNY   61  56  83 CALM      29.87R
Laguardia      MOSUNNY   63  54  72 NW8       29.87R
J F K          MOSUNNY   64  56  75 NW10      29.88R
Boston Logan   CLOUDY    54  51  90 VRB3      29.83R
Ft. Lauderdale PTCLDY    79  77  94 N3        30.04R
Chicago O`Hare MOCLDY    53  50  89 E6        29.88R
Chicago Midway MOCLDY    56  52  86 N6        29.88R
Houston Bush   CLOUDY    80  75  84 S9        29.90R FOG
Houston Hobby  CLOUDY    80  75  84 S8        29.90R
Nashville      MOCLDY    69  62  78 S5        29.92R
Atlanta        MOCLDY    66  62  87 SW6       30.03R

$$

GAZ044-118-TXZ119-213-NCZ071-DCZ001-MDZ014-506-PAZ021-071-NJZ106-
NYZ176-178-MAZ106-OHZ011-021-055-MIZ076-KYZ091-ILZ014-INZ047-
MNZ060-ONZ431-271200-

...Gateway Observations for Savannah International...

CITY           SKY/WX    TMP DP  RH WIND       PRES   REMARKS
Savannah Arpt  PTCLDY    64  58  80 S3        30.04R
Atlanta        MOCLDY    66  62  87 SW6       30.03R
Charlotte      PTCLDY    65  60  84 CALM      29.98R
Dallas DFW     CLOUDY    81  75  82 S16       29.80R
Houston Bush   CLOUDY    80  75  84 S9        29.90R FOG
Wash National  PTSUNNY   63  60  90 SW3       29.92R
Wash Dulles    PTSUNNY   58  55  90 CALM      29.92R
Baltimore      CLOUDY    59  58  96 W3        29.91R
Philadelphia   MOSUNNY   62  51  67 NW9       29.89F
Newark         PTSUNNY   61  56  83 CALM      29.87R
Laguardia      MOSUNNY   63  54  72 NW8       29.87R
J F K          MOSUNNY   64  56  75 NW10      29.88R
Boston         CLOUDY    54  51  90 VRB3      29.83R
Pittsburg      LGT RAIN  57  56  96 SE3       29.90R FOG
Akron          LGT RAIN  57  53  86 E6        29.89R
Cleveland      CLOUDY    60  56  86 SE3       29.89S
Cincinnati     CLOUDY    70  65  84 SW7       29.85R
Columbus       PTCLDY    62  62 100 E5        29.84R
Detroit        CLOUDY    60  56  86 NE6       29.89R
Chicago O`Hare MOCLDY    53  50  89 E6        29.88R
Minneapolis    CLEAR     55  47  74 SW3       29.88R
Indianapolis   CLOUDY    68  66  93 W7        29.83S
Toronto Canada CLOUDY    57  54  88 NW5       29.89R

$$




USA.gov is the U.S. government's official web portal to all federal, state and local government web resources and services.